Regional Weather Roundup
Issued by NWS

Home | Current Version | Previous Version | Graphics & Text | Print | Product List | Glossary On
Versions: 1 2 3 4 5 6 7 8 9 10 11 12 13 14 15 16 17 18 19 20 21 22 23 24 25 26 27 28 29 30 31 32 33 34 35 36 37 38 39 40 41 42 43 44 45 46 47 48 49 50
000
ASUS43 KMPX 010101
RWRMN
WEATHER ROUNDUP FOR MINNESOTA
NATIONAL WEATHER SERVICE TWIN CITIES/CHANHASSEN MN
800 PM CDT WED AUG 31 2016


NOTE: "FAIR" INDICATES FEW OR NO CLOUDS BELOW 12,000 FEET WITH NO
SIGNIFICANT WEATHER AND/OR OBSTRUCTIONS TO VISIBILITY. N/A MEANS
CURRENT SKY AND/OR WEATHER CONDITIONS ARE NOT AVAILABLE.

MNZ060>063-068>070-010200-
   Twin Cities Metro

CITY           SKY/WX    TMP DP  RH WIND       PRES   REMARKS
TWIN CITIES    PTCLDY    72  48  42 NE6       30.16R
ST PAUL        CLEAR     72  52  49 NE3       30.16R
CRYSTAL        CLEAR     71  49  45 N5        30.15R
LAKEVILLE      CLEAR     63  57  82 CALM      30.17R
EDEN PRAIRIE   CLEAR     72  57  59 N5        30.15R
LAKEVILLE      CLEAR     63  57  82 CALM      30.17R
SOUTH ST PAUL  CLEAR     73  51  46 CALM      30.16R
LAKE ELMO      FAIR      64  59  82 CALM      30.18R
$$
MNZ001>005-007-008-013>017-022>024-027-028-010200-
   Northwest Minnesota

CITY           SKY/WX    TMP DP  RH WIND       PRES   REMARKS
BEMIDJI        CLEAR     63  55  74 N3        30.23R
HALLOCK        CLEAR     66  55  68 NE7       30.22R
ROSEAU         CLEAR     63  55  77 E3        30.24F
WARROAD        CLEAR     63  55  77 CALM      30.26R
THIEF RVR FALL CLOUDY    65  55  70 NE7       30.23S
CROOKSTON      CLOUDY    68  57  68 E3        30.22S
FOSSTON        CLOUDY    61  55  82 CALM      30.23R
DETROIT LAKES  CLEAR     68  54  60 CALM      30.23R
MOORHEAD       CLOUDY    70  55  60 NE6       30.20S
PARK RAPIDS    CLEAR     68  54  60 NE6       30.22R
MAHNOMEN       FAIR      64  56  76 N5        30.22R
$$
MNZ006-009>011-018-025>026-010200-
   North Central Minnesota

CITY           SKY/WX    TMP DP  RH WIND       PRES   REMARKS
BAUDETTE       CLEAR     61  54  77 N6        30.24R
FLAG ISLAND    CLEAR     64  54  68 CALM      30.25R
INTL FALLS     CLEAR     61  52  72 CALM      30.22R
WASKISH        CLEAR     64  55  72 N3        30.24R
BIG FORK       CLEAR     57  55  94 CALM      30.23R
LONGVILLE      PTCLDY    59  57  94 CALM      30.23R
GRAND RAPIDS   CLEAR     60  54  80 N3        30.24R
CRANE LAKE     PTCLDY    57  55  94 CALM      30.23R
ORR            CLEAR     57  54  88 CALM      30.20R
COOK           CLEAR     59  55  88 CALM      30.23R
WALKER         FAIR      61  56  83 CALM      30.22R
$$
MNZ012-019>021-037-010200-
   Northeast Minnesota

CITY           SKY/WX    TMP DP  RH WIND       PRES   REMARKS
DULUTH         PTCLDY    64  54  69 CALM      30.20R
ELY            PTCLDY    63  52  67 CALM      30.21R
HIBBING        CLEAR     59  54  83 N3        30.22R
EVELETH        PTCLDY    63  53  70 CALM      30.23R
DULUTH HARBOR  CLOUDY    70  61  73 N6        30.19R
TWO HARBORS    PTCLDY    63  57  82 CALM      30.19R
SILVER BAY     CLOUDY    63  57  82 CALM      30.19R
GRAND MARAIS     N/A     64  50  60 N3        30.18R
G MARAIS ARPRT PTCLDY    55  50  82 N3        30.22R
$$
MNZ029>031-032-039>041-046>048-054>057-064-010200-
   West Central Minnesota

CITY           SKY/WX    TMP DP  RH WIND       PRES   REMARKS
FERGUS FALLS   CLEAR     72  55  56 N5        30.20R
WHEATON        CLEAR     70  64  83 E3        30.20R
MORRIS         CLEAR     72  61  68 NE3       30.19R
ALEXANDRIA     CLEAR     70  55  59 NE3       30.21R
ELBOW LAKE     FAIR      72  57  58 NE3       30.20R
GLENWOOD       CLEAR     70  57  64 NE3       30.21R
APPLETON       CLEAR     73  61  64 CALM      30.18R
BENSON         CLEAR     72  57  60 CALM      30.19R
ORTONVILLE     CLEAR     73  61  64 CALM      30.18R
MADISON        CLEAR     72  63  73 E3        30.18R
WILLMAR        FAIR      70  61  73 NE3       30.20R
$$
MNZ033>034-036-042>043-049>051-058-059-010200-
   Central Minnesota

CITY           SKY/WX    TMP DP  RH WIND       PRES   REMARKS
ST CLOUD       CLEAR     67  53  61 N3        30.18R
SAUK CENTRE    FAIR      71  56  59 N6        30.21R
PAYNESVILLE    CLEAR     68  57  67 CALM      30.19S
AITKIN         CLEAR     63  54  72 CALM      30.20R
PINE RIVER     CLEAR     64  57  77 CALM      30.25R
BRAINERD       CLEAR     67  56  67 N6        30.21R
STAPLES        CLEAR     66  54  63 CALM      30.21R
LONG PRAIRIE   FAIR      66  55  68 CALM      30.21R
LITTLE FALLS   CLEAR     64  54  68 CALM      30.21R
LITCHFIELD     CLEAR     72  61  68 CALM      30.19R
BUFFALO        CLEAR     71  52  52 N5        30.18R
MAPLE LAKE     CLEAR     68  61  76 CALM      30.19R
HUTCHINSON     CLEAR     68  62  82 N5        30.19R
$$
MNZ037-044-045-052-053-010200-
   East Central Minnesota

CITY           SKY/WX    TMP DP  RH WIND       PRES   REMARKS
PRINCETON      CLEAR     68  55  64 CALM      30.18S
MORA           CLEAR     63  55  77 CALM      30.20R
CAMBRIDGE      CLEAR     68  55  64 CALM      30.16R
RUSH CITY      CLEAR     63  57  82 CALM      30.18R
MOOSE LAKE     CLEAR     63  57  82 CALM      30.18R
HINCKLEY       FAIR      63  59  88 N3        30.18R
CLOQUET        CLOUDY    66  54  63 CALM      30.20R
MCGREGOR       CLEAR     64  54  68 N3        30.21R
$$
MNZ071>073-080-081-089-090-097-098-010200-
   Southwest Minnesota

CITY           SKY/WX    TMP DP  RH WIND       PRES   REMARKS
MONTEVIDEO     CLEAR     72  61  68 CALM      30.19S
GRANITE FALLS  CLEAR     71  64  78 CALM      30.19R
CANBY          PTCLDY    73  63  71 CALM      30.19S
MARSHALL       PTCLDY    73  61  65 E3        30.18S
REDWOOD FALLS  CLEAR     72  59  63 CALM      30.17R
OLIVIA         CLEAR     73  63  68 CALM      30.17S
WINDOM         CLEAR     70  61  73 CALM      30.19R
WORTHINGTON    CLEAR     69  62  78 NE5       30.20R
JACKSON        CLEAR     68  61  77 CALM      30.20R
TRACY          PTCLDY    72  64  76 CALM      30.19S
SLAYTON        CLOUDY    70  61  73 NE6       30.20S
$$
MNZ065>067-074>077-082>085-091>093-010200-
   South Central Minnesota

CITY           SKY/WX    TMP DP  RH WIND       PRES   REMARKS
MANKATO        CLEAR     71  59  65 N5        30.18R
NEW ULM        CLEAR     72  57  60 CALM      30.17R
ST JAMES       CLEAR     68  63  83 CALM      30.19R
FAIRMONT       CLEAR     68  61  78 N5        30.18R
GLENCOE        CLEAR     69  64  84 CALM      30.17R
FARIBAULT      CLEAR     66  61  82 CALM      30.17R
OWATONNA       CLEAR     66  61  82 CALM      30.17R
WASECA         CLEAR     64  59  82 CALM      30.18S
ALBERT LEA     CLEAR     64  59  82 NE3       30.17R
$$
MNZ078>079-086>088-094>096-010200-
   Southeast Minnesota

CITY           SKY/WX    TMP DP  RH WIND       PRES   REMARKS
ROCHESTER      CLEAR     64  55  72 N6        30.17S
RED WING       CLEAR     64  57  77 N5        30.15R
STANTON        CLEAR     68  57  68 CALM      30.15S
DODGE CENTER   CLEAR     64  54  68 CALM      30.18R
WINONA         CLEAR     70  59  68 CALM      30.15R
AUSTIN         CLEAR     66  55  68 CALM      30.17R
PRESTON        CLEAR     65  54  65 N3        30.17R
$$
ABBREVIATIONS USED IN REMARKS
   TC - TEMPERATURES IN CELSIUS
  WCI - WIND CHILL INDEX
   HX - HEAT INDEX
  VSB - VISIBILITY
$$



USA.gov is the U.S. government's official web portal to all federal, state and local government web resources and services.